TUBIN
1 48900U 21059X 24172.58804983 .00012792 00000-0 43818-3 0 9997
2 48900 97.6458 317.3214 0007666 79.9588 280.2517 15.30325459165446
LEDSAT
1 49069U 21073D 24172.46724666 .00012537 00000-0 50369-3 0 9992
2 49069 97.4381 243.5759 0017744 270.0581 89.8623 15.24936824156959
CUTE
1 49263U 21088D 24172.16048743 .00013191 00000-0 61569-3 0 9997
2 49263 97.4977 238.1319 0015357 76.0614 284.2328 15.19858710150090
TeikyoSat 4
1 49396U 21102B 24172.57072973 .00001482 00000-0 11025-3 0 9990
2 49396 97.4592 217.4323 0011492 263.2061 96.7858 15.04396505143265
Z-Sat
1 49399U 21102E 24172.58919524 .00003560 00000-0 23150-3 0 9997
2 49399 97.4313 219.0075 0018815 243.2615 116.6689 15.08478138143508
KOSEN 1
1 49402U 21102H 24172.55705747 .00005809 00000-0 34503-3 0 9991
2 49402 97.4231 220.4275 0017955 225.9015 134.0739 15.11544847143656
HO-113
1 50466U 21131B 24172.53134941 .00000692 00000-0 23544-3 0 9993
2 50466 98.5284 257.5846 0005394 113.2966 246.8790 14.39669935130482
Tevel-3
1 50988U 22002E 24172.57140233 .00170478 00000-0 14089-2 0 9998
2 50988 97.3756 248.6260 0003826 240.0499 120.0384 15.69763225135580
Tevel-8
1 50989U 22002F 24172.48651967 .00165972 00000-0 13881-2 0 9992
2 50989 97.3779 248.6288 0003650 239.7721 120.3180 15.69487371135564
Tevel-5
1 50998U 22002Q 24172.47100149 .00261773 00000-0 14719-2 0 9999
2 50998 97.3734 250.0571 0006495 244.2908 115.7689 15.78490774135670
Tevel-6
1 50999U 22002R 24172.48318092 .00260597 00000-0 14954-2 0 9993
2 50999 97.3723 250.0181 0006226 244.2115 115.8510 15.78038440135670
Tevel-1
1 51013U 22002AF 24172.47660567 .00157710 00000-0 13244-2 0 9990
2 51013 97.3750 248.3735 0004085 241.6096 118.4754 15.69411107135565
IRIS-A
1 51044U 22002BN 24172.45159480 .00015913 00000-0 52098-3 0 9998
2 51044 97.3851 238.9476 0005881 36.9392 323.2254 15.31742034134922
Tevel-7
1 51062U 22002CG 24172.47111475 .00164455 00000-0 13605-2 0 9998
2 51062 97.3769 248.5915 0004175 240.5793 119.5052 15.69755168135564
Tevel-4
1 51063U 22002CH 24172.45615163 .00158961 00000-0 13581-2 0 9998
2 51063 97.3773 248.4514 0004037 243.4707 116.6140 15.68986700135550
Tevel-2
1 51069U 22002CP 24172.56846859 .00168063 00000-0 13870-2 0 9999
2 51069 97.3751 248.5912 0003944 240.3391 119.7479 15.69803976135582
OreSat0
1 52017U 22026K 24172.55701368 .00058617 00000-0 89556-3 0 9991
2 52017 97.4928 186.9921 0013052 187.4525 172.6537 15.54132494126238
Planetum 1
1 52738U 22057G 24172.31621731 .00033720 00000-0 79748-3 0 9994
2 52738 97.5663 298.5718 0005928 146.7614 213.4006 15.41727600115057
Foresail-1
1 52766U 22057AL 24172.39115332 .00015433 00000-0 49841-3 0 9990
2 52766 97.5828 297.9737 0010471 120.8974 239.3298 15.32156488114943
SNUGLITE 2
1 52899U 22065F 24172.54835910 .00001388 00000-0 29312-3 0 9999
2 52899 98.1201 313.6281 0008656 137.0305 223.1574 14.60852855104759
IO-117
1 53106U 22080B 24166.32229891 -.00000003 00000-0 00000-0 0 9996
2 53106 70.1325 193.5164 0007597 107.9394 252.2094 6.42557698 45088
SelfieSat
1 53951U 22057BC 24172.36147103 .00073645 00000-0 10349-2 0 9994
2 53951 97.5677 302.5242 0005336 159.3649 200.7821 15.56440567115288
FO-118
1 54684U 22167C 24172.60051694 .00022276 00000-0 75792-3 0 9994
2 54684 97.6052 317.5084 0010923 135.4927 224.7193 15.30388761 84824
SSS-2B
1 56184U 23054G 24172.91872222 .00027588 00000-0 66239-3 0 9996
2 56184 97.3696 70.9415 0008703 143.1174 217.0673 15.41289554 66711
CIRBE
1 56188U 23054L 24172.25787269 .00053301 00000-0 84411-3 0 9997
2 56188 97.3629 72.2428 0007733 133.0942 227.0960 15.53225988 66762
INSPIRE-Sat 7
1 56211U 23054AK 24172.56511829 .00066243 00000-0 96985-3 0 9993
2 56211 97.3632 73.8327 0011132 117.9199 242.3184 15.55297723 66880
RoseyCubesat 1
1 56212U 23054AL 24172.55579032 .00088925 00000-0 10844-2 0 9993
2 56212 97.3650 74.6440 0011566 118.3130 241.9295 15.60110543 66931
SO-120
1 56992U 23084BU 24172.59258973 .00022302 00000-0 80650-3 0 9993
2 56992 97.5322 291.9879 0011187 16.3970 343.7629 15.28394185 56708
MRC-100
1 56993U 23084BV 24172.29717712 .00025494 00000-0 86363-3 0 9994
2 56993 97.5324 292.0991 0010376 14.8827 345.2716 15.30506103 56691
UmKA 1 (RS40S)
1 57172U 23091G 24172.58417197 .00004482 00000-0 29741-3 0 9999
2 57172 97.6112 224.5951 0018395 109.7800 250.5413 15.07616620 54002
CubeBel-2 (EU11S)
1 57175U 23091K 24172.59912551 .00006261 00000-0 40628-3 0 9991
2 57175 97.6119 224.5635 0016932 120.5535 239.7367 15.08306866 54008
VERONIKA
1 58261U 23174F 24172.54955493 .00015283 00000-0 68496-3 0 9994
2 58261 97.4612 247.3019 0011815 224.4706 135.5582 15.21264311 34226
KAFASAT
1 58317U 23174BP 24172.55771180 .00019421 00000-0 78885-3 0 9997
2 58317 97.4557 247.8950 0011504 201.1018 158.9747 15.24555914 34270
ENSO
1 58470U 23185J 24172.55079978 .00012686 00000-0 53537-3 0 9998
2 58470 97.4270 239.2359 0011246 263.0346 96.9612 15.23363956 30656
EIRSAT-1
1 58472U 23185L 24172.58836287 .00014080 00000-0 58357-3 0 9992
2 58472 97.4264 239.3183 0010832 263.0271 96.9734 15.23953721 30665
SO-121
1 58567U 23174CY 24172.45810153 .00037787 00000-0 12915-2 0 9993
2 58567 97.4540 248.1967 0013233 209.2380 150.8121 15.30100379 34289
SONATE-2
1 59112U 24043Q 24172.33214035 .00007729 00000-0 37523-3 0 9996
2 59112 97.4791 296.1379 0013661 283.2798 76.6912 15.18668684 16281
KASHIWA
1 59508U 98067WH 24172.56107131 .00136309 00000-0 11565-2 0 9999
2 59508 51.6314 294.1566 0011361 319.1760 40.8384 15.68633947 11024
/EX
1
0
20 Jun '24
This week there are no additions or deletions to the AMSAT TLE distribution.
1
0
SB KEPS @ AMSAT $ORB24166.1
2Line Orbital Elements 24166.AMSAT
QST de W1STR
AMSAT Orbital Elements for Amateur Satellites in TLE Format
>From Orbital Analysis Office
New England Sci-Tech STEM Education Center
Natick, MA June 14, 2024
To all radio amateurs
These element sets describe the orbits of various satellites
in use by the amateur radio community. For details see:
www.amsat.org/keplerian-elements-formats/
A daily update of element sets is available at:
www.amsat.org/tle/daily-bulletin.txt
or without bulletin text:
www.amsat.org/tle/dailytle.txt
AO-07
1 07530U 74089B 24165.64804102 -.00000034 00000-0 77070-4 0 9999
2 07530 101.9773 160.2632 0012636 90.9622 22.7188 12.53676100268590
UO-11
1 14781U 84021B 24165.52264070 .00002151 00000-0 24755-3 0 9995
2 14781 97.7043 134.9041 0009802 89.3979 270.8360 14.86721762147944
AO-16
1 20439U 90005D 24165.64473681 .00000253 00000-0 10882-3 0 9991
2 20439 98.8990 170.6706 0009982 217.6060 258.7004 14.33389680796823
LO-19
1 20442U 90005G 24165.52446468 .00000279 00000-0 11765-3 0 9994
2 20442 98.8819 155.6955 0011399 191.0023 169.0913 14.33550296797316
AO-27
1 22825U 93061C 24165.62078475 .00000198 00000-0 93424-4 0 9999
2 22825 98.7884 218.3591 0009571 90.0816 270.1463 14.30504744602104
IO-26
1 22826U 93061D 24165.60029829 .00000225 00000-0 10313-3 0 9993
2 22826 98.7832 218.2021 0010048 76.8805 283.3498 14.30886980602385
